This demonstration page uses our WeatherBlox Daily Observations layout. Learn more.

Left ArrowRight Arrow

Hourly Observations for August 4, 2017

Temp ( °F °C ) Dew Point ( °F °C ) Humidity (%) Winds ( mph kmh ) Pressure ( in mb ) Visibility ( mi km ) Precip ( " mm )
12:51 am 00:51 Clear 75 23.9 61 16.1 62 62 E 3 6 29.88 1012 10 16.0934 0 0
1:51 am 01:51 Clear 75 23.9 63 17.2 66 66 E 3 6 29.87 1011 10 16.0934 0 0
2:51 am 02:51 Clear 77 25 62 16.7 60 60 S 3 6 29.87 1011 10 16.0934 0 0
3:51 am 03:51 Clear 74 23.3 63 17.2 69 69 N 7 11 29.88 1012 10 16.0934 0 0
4:51 am 04:51 Clear 74 23.3 64 17.8 71 71 Calm 29.89 1012 10 16.0934 0 0
5:51 am 05:51 Sunny 74 23.3 65 18.3 74 74 Calm 29.9 1013 10 16.0934 0 0.0254
6:51 am 06:51 Sunny 77 25 67 19.4 71 71 Calm 29.92 1013 10 16.0934 0 0
7:51 am 07:51 Sunny 78 25.6 66 18.9 67 67 Calm 29.93 1014 10 16.0934 0 0
8:51 am 08:51 Sunny 83 28.3 64 17.8 53 53 VRB 3 6 29.93 1014 10 16.0934 0 0
9:51 am 09:51 Sunny 87 30.6 62 16.7 43 43 SE 5 7 29.93 1014 10 16.0934 0 0
10:44 am 10:44 Mostly Sunny 90 32 63 17 41 41 ESE 7 11 29.83 1010 8 12.87472 0 0
10:51 am 10:51 Sunny 89 31.7 61 16.1 39 39 SE 3 6 29.92 1013 10 16.0934 0 0
11:51 am 11:51 Sunny 91 32.8 62 16.7 38 38 VRB 6 9 29.9 1012 10 16.0934 0 0
12:51 pm 12:51 Sunny 94 34.4 60 15.6 32 32 ENE 5 7 29.86 1011 10 16.0934 0 0
1:51 pm 13:51 Sunny 93 33.9 57 13.9 30 30 E 3 6 29.84 1010 10 16.0934 0 0
2:12 pm 14:12 Sunny with Nearby Thunderstorms 91 33 55 13 30 30 NW 3 6 29.71 1006 10 16.0934 0 0
2:51 pm 14:51 Sunny with Nearby Thunderstorms 88 31.1 58 14.4 36 36 W 17 28 29.83 1010 10 16.0934 0 0
3:08 pm 15:08 Partly Cloudy 88 31 61 16 40 40 W 10 17 29.74 1007 10 16.0934 0 0
3:21 pm 15:21 Mostly Cloudy with Nearby Thunderstorms 90 32.2 61 16.1 38 38 WSW 12 19 29.74 1007 10 16.0934 0 0
3:35 pm 15:35 Partly Cloudy 87 30.6 62 16.7 43 43 SSW 18 30 29.74 1007 10 16.0934 0 0
3:51 pm 15:51 Sunny 89 31.7 60 15.6 38 38 S 14 22 29.82 1010 10 16.0934 0 0
4:51 pm 16:51 Sunny 91 32.8 60 15.6 35 35 VRB 7 11 29.8 1009 10 16.0934 0 0
5:51 pm 17:51 Sunny 92 33.3 60 15.6 34 34 N 5 7 29.8 1009 10 16.0934 0 0
6:51 pm 18:51 Sunny 88 31.1 61 16.1 40 40 NW 5 7 29.8 1009 10 16.0934 0 0
7:51 pm 19:51 Clear 85 29.4 62 16.7 46 46 W 7 11 29.81 1010 10 16.0934 0 0
8:51 pm 20:51 Clear 82 27.8 64 17.8 55 55 NNE 6 9 29.83 1010 10 16.0934 0 0
9:51 pm 21:51 Clear 81 27.2 64 17.8 57 57 S 5 7 29.83 1010 10 16.0934 0 0
10:51 pm 22:51 Clear 80 26.7 66 18.9 62 62 Calm 29.83 1010 10 16.0934 0 0
11:51 pm 23:51 Clear 79 26.1 64 17.8 60 60 SW 6 9 29.83 1010 10 16.0934 0 0.0254

Powered by AerisWeather